Voltar ao catálogo

QIANFAN-174

AtivoComunicaçõesPO
NORAD 69391·PAYLOAD·🇨🇳 China

Lançado Jun 4, 2026 de Taiyuan Satellite Launch Center

Loading…

Próximas Passagens (próximas 24 horas)

TLE

AtualizadoSource: Space-Track

Época: Sep 14, 2026, 20:52 UTC

1 69391U 26124K   26257.86970105  .00000130  00000-0  18315-3 0  9996
2 69391  89.0044 352.5143 0002186 110.0344 250.1043 13.51029533 14178

Acompanhe QIANFAN-174 em tempo real com AllMySat

Download on the App Store